Starlink 4139

operational
NORAD ID: 52879 Int'l Des: 2022-062 Owner: SPXS Country: US Constellation: starlink
LEOCIRCULAR

About Starlink 4139

Description loading...

Live Position

Loading 3D Globe...

Upcoming Passes

Altitude History

Altitude vs Time

uPlot chart will show altitude changes over time

Two-Line Element Set

1 52879U 22062BB 25308.45518161 -.00000598 00000-0 -19504-4 0 9999
2 52879 53.2187 216.3212 0001696 88.8884 271.2303 15.08833801187160
Epoch: Nov 4, 2025 • Age: 10 hours

Current Status

Altitude 539.7 km
Velocity 7.59 km/s
Sub-Earth Point 9.63°N, 24.73°E
Launch Date Jun 17, 2022
Age 3.3 years
Type internet

Technical Details

Classification Payload
Mass 297.00 kg
Dry Mass 275.00 kg
Total Mass 297.00 kg
Length 0.20 m
Diameter 2.80 m
Span 9.00 m
Shape Box + pan
Manufacturer SPXS
Bus Type Starlink
Phase Status In Orbit
Owner/State SPXS/US

Large Constellations

Loading constellations...